Weather in Korocha

Russia / Belgorod Oblast     50°48′39″N   37°11′41″E
temp.,
°C
wind,
m/s
gust,
m/s
humid.,
%
clouds,
%
prec.,
mm/h
press.,
hPa
HPBL,
m
6 may, thu
thu600:00+12s51166100 0.0 1014262
03:00+11s51166100 0.0 1013315
06:00+9s4978100 0.0 1013232
09:00+12s71261100 0.0 1013718
12:00+16ssw8125396 0.0 10121518
15:00+17ssw8104886 0.0 10112070
18:00+16sw586098 0.0 1010592
21:00+13wsw3969100 0.1 1011414
7 may, fri
fri700:00+9nw4890100 0.5 1012469
03:00+8n369297 3.9 1014356
06:00+7wnw2392100 0.0 1015139
09:00+11nw33720 0.0 1016711
12:00+14wnw23455 0.0 10161814
15:00+15sw22428 0.0 10161827
18:00+15s345553 0.0 1015637
21:00+11se4666100 0.0 101598
8 may, sat
sat800:00+11se5116792 0.0 1014265
03:00+11sse71663100 0.0 1012473
06:00+10s61381100 0.3 1010476
09:00+11s71385100 0.5 1009610
12:00+11s81494100 2.1 1009815
15:00+11w6996100 8.1 1009721
18:00+9w4995100 2.1 1011441
21:00+7nw61284100 2.2 1013676
9 may, sun
sun900:00+6wnw3988100 0.0 1014516
03:00+5nw41088100 0.0 1016529
06:00+4nw5118689 0.0 1017473
09:00+8nnw6106998 0.0 1018907
12:00+11nnw795552 0.0 10191840
15:00+12nnw8950100 0.0 10192227
18:00+10nnw69615 0.1 10211671
21:00+6n411763 0.1 1024314
10 may, mon
mon1000:00+5n411814 0.0 1025282
03:00+4nnw613843 0.0 1026309
06:00+4n6158112 0.0 1027541
09:00+9nne9146451 0.0 10261121
12:00+13nne1013535 0.0 10261486
15:00+11nne81358100 0.0 1025979
18:00+11nne81563100 0.0 1024926
21:00+11nne81667100 0.0 1025748